Home   Weather   Maceió   Past weeks
Flag for Brazil

Past Weather in Maceió, Alagoas, Brazil — Yesterday and Last 2 Weeks

Now
73 °F

Heavy rain. Fog.


Feels Like: 72 °F
Forecast: N/A
Wind: 10 mph from Southeast

Location: Maceio Aeroporto

Current Time: Jul 19, 2019 at 6:31:35 pm

Latest Report: Jul 19, 2019 at 5:00 pm


Visibility: 1 mi

Pressure: 30.07 "Hg

Humidity: 89%

Dew Point: 70 °F

Location of MaceióLocation

Past Weather in Maceió — Graph

°F

Maceió Temperature Yesterday

Maximum temperature yesterday: 84 °F (at 12:00 pm)
Minimum temperature yesterday: 70 °F (at 5:00 am)
Average temperature yesterday: 76 °F

High & Low Weather Summary for the Past Weeks

 TemperatureHumidityPressure
High86 °F (Jul 6, 1:00 pm)94% (Jul 4, 8:00 pm)30.15 "Hg (Jul 4, 8:00 pm)
Low64 °F (Jul 17, 4:00 am)40% (Jul 16, 4:00 pm)29.95 "Hg (Jul 4, 5:00 pm)
Average75 °F81%30.03 "Hg
* Reported Jul 4 5:00 pm — Jul 19 5:00 pm, Maceió. Weather by CustomWeather, © 2019

Note: Actual official high and low records may vary slightly from our data, if they occured in-between our weather recording intervals... More about our weather records

Advertising

Maceió Weather History for the Previous 24 Hours

Scroll right to see more
 ConditionsComfort  
Time TempWeatherWind HumidityBarometerVisibility
5:00 pm
Fri, Jul 19
73 °FHeavy rain. Fog.10 mph89%30.07 "Hg1 mi
4:30 pm72 °FHeavy rain. Fog.14 mph94%30.07 "Hg1 mi
4:00 pm72 °FLight rain. Fog.16 mph94%N/A2 mi
3:30 pm73 °FLight rain. Fog.9 mph89%30.07 "Hg2 mi
3:00 pm75 °FRain. Fog.7 mph83%30.07 "Hg2 mi
2:00 pm79 °FPartly sunny.14 mph74%30.07 "HgN/A
1:00 pm77 °FPartly sunny.17 mph79%30.07 "HgN/A
12:10 pm77 °FLight rain. Broken clouds.8 mph79%30.09 "Hg5 mi
11:00 am79 °FBroken clouds.10 mph74%N/AN/A
10:00 am79 °FPartly sunny.12 mph74%30.12 "HgN/A
9:00 am77 °FPartly sunny.8 mph79%30.12 "HgN/A
8:00 am77 °FScattered clouds.7 mph83%30.12 "HgN/A
7:00 am72 °FScattered clouds.No wind94%30.09 "HgN/A
6:00 am72 °FPartly sunny.2 mph94%30.09 "HgN/A
5:00 am72 °FPassing clouds.5 mph88%30.09 "HgN/A
4:00 am73 °FPassing clouds.7 mph89%30.07 "HgN/A
3:00 am73 °FPartly cloudy.7 mph83%30.07 "HgN/A
2:00 am73 °FPartly cloudy.18 mph83%30.09 "HgN/A
1:00 am73 °FPartly cloudy.6 mph83%30.09 "HgN/A
12:00 am72 °FPartly cloudy.14 mph83%30.12 "HgN/A
11:00 pm
Thu, Jul 18
72 °FPartly cloudy.6 mph88%30.12 "HgN/A
10:00 pm73 °FPassing clouds.8 mph83%30.12 "HgN/A
9:00 pm73 °FPassing clouds.5 mph83%30.12 "HgN/A
8:00 pm75 °FPassing clouds.9 mph78%30.09 "HgN/A
7:00 pm75 °FPartly cloudy.5 mph83%30.09 "HgN/A
6:00 pm79 °FPassing clouds.No wind61%30.07 "HgN/A
Weather by CustomWeather, © 2019

See weather overview